Regional Weather Roundup
Issued by NWS

Home | Current Version | Previous Version | Text Only | Print | Product List | Glossary On
Versions: 1 2 3 4 5 6 7 8 9 10 11 12 13 14 15 16 17 18 19 20 21 22 23 24 25 26 27 28 29 30 31 32 33 34 35 36 37 38 39 40 41 42 43 44 45 46 47 48 49 50
000
ASUS44 KEWX 272003
RWRTX
SOUTH TEXAS REGIONAL WEATHER ROUNDUP
NATIONAL WEATHER SERVICE AUSTIN/SAN ANTONIO TX
200 PM CST MON FEB 27 2017

NOTE: "FAIR" INDICATED FEW OR NO CLOUDS BELOW 12,000 FEET WITH NO
SIGNIFICANT WEATHER AND/OR OBSTRUCTIONS TO VISIBILITY.

* - THESE STATIONS ARE NOT NWS OR FAA STATIONS...AND ARE NOT SUBJECT
    TO NWS AND FAA QUALITY CONTROL.

TXZ171-172-183>190-272100-
TEXAS HILL COUNTRY AND EDWARDS PLATEAU

CITY           SKY/WX    TMP DP  RH WIND       PRES   REMARKS
JUNCTION       SUNNY     79  58  48 SW9       29.90F
*LLANO         PTSUNNY   79  63  57 CALM      29.94F
BURNET         CLOUDY    73  63  70 S9        29.94F
*HORSESHOE BAY   N/A     77  62  58 S6        29.91F
*KERRVILLE     MOSUNNY   76  64  66 SE7       29.93F
*FREDERICKSBRG MOSUNNY   74  58  57 SW8       29.94F
*ROCKSPRINGS   SUNNY     77  57  50 CALM      29.97F
*BOERNE STAGE  PTSUNNY   73  61  64 S7        29.94F
*CASTROVILLE   PTSUNNY   77  62  59 S3        29.93F
HONDO          PTSUNNY   79  63  57 VRB5      29.91F
*UVALDE        SUNNY     78  62  57 CALM      29.91F
DEL RIO        SUNNY     78  56  46 CALM      29.88F
LAUGHLIN AFB   NOT AVBL
CARRIZO SPRGS  SUNNY     81  59  47 S3        29.87F
*EAGLE PASS    CLEAR     84  59  42 VRB3      29.88F
$$

TXZ173-191>194-202-209-217>225-228-272100-
CENTRAL AND SOUTH CENTRAL TEXAS

CITY           SKY/WX    TMP DP  RH WIND       PRES   REMARKS
GEORGETOWN     CLOUDY    75  63  64 SW10      29.91F
AUSTIN/BERGSTM CLOUDY    79  65  62 S12       29.91F
AUSTIN/MABRY   CLOUDY    77  65  66 VRB6      29.92F
*AUSTIN/EXEC   MOSUNNY   77  64  65 S13       29.92F
*LAGO VISTA    PTSUNNY   76  64  66 S12       29.93F
SAN MARCOS     CLOUDY    77  64  65 S13       29.92F
NEW BRAUNFELS  CLOUDY    79  66  64 S13       29.90F
RANDOLPH AFB   NOT AVBL
PT SAN ANTONIO MOSUNNY   76  66  71 S7        29.89F
SAN ANTONIO    PTSUNNY   76  65  68 S9        29.92F
STINSON FIELD  CLOUDY    80  65  59 S7        29.89F
*PLEASANTON    PTSUNNY   80  65  61 SE9       29.90F
*LA GRANGE     MOSUNNY   84  67  55 S14G22    29.88F
*GIDDINGS      PTSUNNY   81  63  53 S12G21    29.91F
*GONZALES      PTSUNNY   82  67  61 S14       29.90F
$$

TXZ163>164-176>182-195>201-210>213-226-227-235-272100-
SOUTHEAST TEXAS

CITY           SKY/WX    TMP DP  RH WIND       PRES   REMARKS
COLLEGE STN    MOSUNNY   83  62  49 S22G30    29.90F
*BRYAN         MOSUNNY   83  63  51 SE21G29   29.91F
*CALDWELL      NOT AVBL
*CROCKETT      PTSUNNY   81  63  54 S12G17    29.97F
*BRENHAM       MOSUNNY   83  65  55 S15G21    29.92F
HUNTSVILLE     MOSUNNY   81  62  52 SE8       29.93F
CONROE         MOSUNNY   83  63  50 S13       29.94F
HOUSTON BUSH   PTSUNNY   80  68  66 SE16      29.95F
HOUSTON HOBBY  PTSUNNY   79  68  69 S13G23    29.95F
*HOUSTON SW AP CLOUDY    79  69  70 SE13      29.96F
PEARLAND       PTSUNNY   80  68  66 S12       29.97F
HOUSTON HOOKS  PTSUNNY   82  64  54 SE9G18    29.94F
ELLINGTON FLD  PTSUNNY   81  68  65 SE16      29.97F
SUGAR LAND     PTSUNNY   80  68  66 S12       29.94F
*HOUSTON EXEC  MOSUNNY   81  66  61 S13       29.95F
*CLEVELAND MUN PTSUNNY   81  66  61 S10G17    29.96F
*WHARTON       MOSUNNY   81  65  59 S13       29.94F
*COLUMBUS      FAIR      80  64  57 S12       29.93F
*EAGLE LAKE    MOCLDY    83  70  64 S13       29.93F
$$

TXZ214>216-236>238-272100-
THE UPPER TEXAS COAST

CITY           SKY/WX    TMP DP  RH WIND       PRES   REMARKS
*ORANGE        MOSUNNY   79  70  72 S12       30.02F
PORT ARTHUR    PTSUNNY   79  67  66 S15       29.99F
GALVESTON      PTSUNNY   76  70  82 SE16      29.99F
ANGLETON       CLOUDY    78  71  79 S9        29.96F
*BAY CITY      CLOUDY    79  71  76 S15       29.95F
PALACIOS       PTSUNNY   79  70  74 SE18      29.94F
$$

TXZ229>234-239>247-272100-
TEXAS COASTAL BEND AND RIO GRANDE PLAINS

CITY           SKY/WX    TMP DP  RH WIND       PRES   REMARKS
VICTORIA       SUNNY     84  67  56 S17       29.92F
*BEEVILLE      CLOUDY    82  69  66 S13       29.90F
ROCKPORT       SUNNY     80  69  69 S14       29.92F
*PORT ARANSAS  MOSUNNY   77  70  80 SE9       29.92F
*PORT LAVACA   CLOUDY    80  72  78 S13G21    29.94F
*INGLESIDE     MOSUNNY   81  70  68 SE10G21   29.92F
CORPUS CHRISTI PTSUNNY   84  68  58 SE20G30   29.89F
CORPUS NAS     PTSUNNY   80  75  84 SE18      29.91F
*ROBSTOWN      PTSUNNY   84  67  57 CALM      29.90F
ALICE          PTSUNNY   84  65  52 SE10      29.88F
KINGSVILLE NAS PTSUNNY   86  71  60 E14       29.88F HX  91
COTULLA        SUNNY     84  63  49 S3        29.88F
*FAITH RANCH   SUNNY     84  59  42 CALM      29.88F
LAREDO         SUNNY     86  65  49 E3        29.87F
$$

TXZ248>255-272100-
DEEP SOUTH TEXAS

CITY           SKY/WX    TMP DP  RH WIND       PRES   REMARKS
BROWNSVILLE    CLOUDY    83  68  60 S20       29.90F
PORT ISABEL    PTSUNNY   84  68  58 S17G30    29.88F
*SOUTH PADRE   NOT AVBL
HARLINGEN      PTSUNNY   87  69  54 S18G24    29.87F HX  91
*HEBBRONVILLE  SUNNY     83  63  50 SE7       29.89F
MCALLEN        MOSUNNY   89  67  47 S16G24    29.87F HX  92
*WESLACO       CLOUDY    87  67  51 S10G17    29.86F HX  90
FALFURRIAS     MOSUNNY   84  65  53 SE12      29.88F
EDINBURG       PTSUNNY   88  65  45 SE10G16   29.87F HX  90
*ZAPATA        SUNNY     89  59  35 SE6       29.85F
$$

TXZ213>215-236>238-242>244-246-247-251-254-255-272100-
CMAN STATIONS

STATION/POSITION TIME  TEMP    WIND        PRES    WAVE
                       AIR SEA DIR/SP/G            HT/PER
                 (UTC) (F)     (DEG/KT/KT) (MB)    (FT/S)
SABINE PASS      1930   71 69  140/ 11/ 13 1017.8
SEA RIM ST PARK  1900   71     130/  9/ 12 1017.2
NORTH JETTY/GLS  1930   73 67  130/ 12/ 13   N/A
EAGLE POINT      1930   70 68  150/ 10/ 12 1015.5
MORGANS POINT    1930   73 67  130/ 13/ 18 1015.3
MISSION/ARANSAS  1900   74                 1015.0
PORT O`CONNOR    1930   72     110/ 11/ 12 1013.8
PORT ARANSAS     1900   71 68  110/  8/  9 1014.0
MALAQUITE BEACH  1930   71 70  100/  9/ 10 1013.8
BAFFIN BAY       1930   76 75  120/ 13/ 16 1013.0
PORT ISABEL      1930   80 72  160/ 13/ 19 1012.7
$$

GMZ080-GMZ150>470-272100-
OFFSHORE BUOY REPORTS

STATION/POSITION TIME  TEMP    WIND        PRES    WAVE
                       AIR SEA DIR/SP/G            HT/PER
                 (UTC) (F)     (DEG/KT/KT) (MB)    (FT/S)
20 E GALVESTON   1850   69 67  120/ 10/ 12 1016.4    4/ 6
90 E PT ARANSAS  1850   72 71  110/  8/ 10 1015.3    5/ 6
35 NE PT MANSFLD 1850   75     160/ 10/ 12 1013.5    4/ 6
200 E PT ISABEL  1850   76 74  150/ 17/ 21 1015.4    5/ 7
$$




USA.gov is the U.S. government's official web portal to all federal, state and local government web resources and services.